Temperature
28 28 28 28 28 28 28 29 29 29 29 28 28 28 27 26 25 24 23 22 21 21 20 19 19 18 18 18 17 17 17 16 16 16 16 15 15 15 15 15 14 14 14 14
27 28 28 28 28 28 28 28 29 29 28 28 27 27 26 25 24 24 23 22 21 20 20 19 18 18 17 17 17 17 16 16 16 16 16 15 15 15 15 15 14 14 14 14
27 27 27 27 28 28 28 28 28 28 28 27 27 26 25 24 24 23 23 22 21 20 19 19 18 18 17 17 17 16 16 16 16 16 15 15 15 15 15 14 14 14 14 14
26 26 25 27 28 28 27 27 27 27 27 27 26 25 25 24 23 23 22 21 21 20 20 19 18 18 17 17 17 16 16 16 16 16 15 15 15 15 14 14 14 14 14 13
26 26 26 26 27 27 27 26 26 26 26 26 25 25 25 23 23 22 22 21 20 20 20 19 18 18 17 17 16 16 16 16 16 15 15 15 15 14 14 14 14 14 13 13
25 25 25 26 26 25 26 25 25 25 25 25 25 26 25 23 22 21 21 20 20 20 19 18 18 17 17 17 16 16 16 16 15 15 15 15 14 14 14 14 13 13 13 13
24 25 26 26 25 25 25 25 24 24 24 24 24 24 23 22 21 20 20 19 19 19 18 18 17 17 17 17 16 16 16 16 15 15 15 14 14 14 14 13 13 13 12 12
24 24 25 24 25 25 24 23 23 23 23 23 22 22 21 21 20 19 19 19 18 18 18 17 17 17 16 16 16 16 15 15 15 15 14 14 14 13 13 13 13 13 12 12
24 24 23 23 23 22 21 22 22 22 22 21 21 21 20 20 19 19 19 18 18 18 17 17 16 16 16 16 16 15 15 15 15 14 14 14 13 13 13 13 13 13 13 12
22 23 22 22 21 21 21 21 21 21 21 20 20 20 20 19 19 18 18 18 18 17 17 16 16 16 16 16 15 15 15 15 14 14 14 13 13 13 13 13 13 13 12 12
21 22 22 21 21 20 20 20 20 20 20 20 20 19 19 19 18 18 18 17 17 17 17 16 16 16 16 15 15 15 15 15 14 14 14 13 13 13 13 13 12 12 12 12
21 21 21 20 20 20 20 20 19 19 19 19 19 19 19 18 18 17 17 17 17 17 16 16 16 16 15 15 15 15 14 14 14 14 13 13 13 13 13 12 12 12 12 12
19 19 19 19 19 19 19 19 19 19 18 18 18 18 18 18 17 17 17 17 16 16 16 16 16 15 15 15 14 14 14 14 14 14 14 13 13 13 12 12 12 12 12 11
18 18 18 18 19 18 18 18 18 18 18 18 18 18 17 17 17 17 16 16 16 16 16 15 15 15 15 14 14 14 14 14 14 14 13 13 13 13 13 12 12 12 12 11
17 17 18 18 18 18 17 18 18 18 17 17 17 17 17 16 16 16 16 16 16 15 15 15 15 15 14 14 14 14 14 14 14 13 13 13 13 13 13 12 12 12 12 11
17 17 17 17 17 17 17 17 17 17 17 17 16 16 16 16 15 15 15 15 15 15 15 15 15 14 14 14 14 14 14 14 13 13 13 13 13 13 12 12 12 12 12 11
16 17 17 17 17 17 17 17 17 17 16 16 16 16 15 15 15 15 15 15 14 14 14 14 14 14 14 14 14 14 14 13 13 13 13 13 12 12 12 12 12 12 11 11
16 16 16 16 16 16 16 16 16 16 15 15 15 15 15 15 15 14 14 14 14 14 14 14 14 14 14 13 13 13 13 13 13 13 13 12 12 12 12 12 12 11 11 11
15 15 15 16 16 16 16 16 15 15 15 15 15 15 14 14 14 14 14 14 14 14 13 14 14 14 13 13 13 13 13 13 13 12 12 12 12 12 12 11 11 11 11 11
15 15 15 15 15 15 15 15 15 15 14 14 14 14 14 14 14 14 14 14 14 14 13 13 13 13 13 13 13 13 13 13 13 12 12 12 12 12 12 11 11 11 11 11
15 15 14 15 15 15 15 14 14 14 14 14 14 14 14 14 14 14 14 14 13 13 13 14 13 13 13 13 13 13 12 12 12 12 12 12 12 11 11 11 11 11 10 10
14 14 14 14 14 14 14 14 14 14 14 14 14 14 14 14 13 13 13 14 13 13 13 13 13 13 13 12 12 12 12 12 12 12 12 12 11 11 11 11 11 10 10 10
13 13 13 14 14 14 14 13 13 13 13 13 13 13 13 14 14 14 13 13 13 13 13 13 13 13 13 12 12 12 12 12 12 12 12 11 11 11 11 10 10 10 10 9
13 13 13 13 13 13 13 13 13 13 13 13 13 13 13 13 13 13 13 13 13 13 13 13 13 12 12 12 12 12 12 12 12 12 11 11 11 11 10 10 10 10 9 9
12 12 13 13 13 13 13 13 13 13 13 13 13 13 13 13 13 13 13 13 13 13 12 12 12 12 12 12 12 11 11 11 11 11 11 11 11 10 10 10 9 9 9 9
12 12 12 12 12 12 12 12 13 13 13 13 13 13 13 13 13 13 12 12 12 12 12 12 12 11 11 11 11 11 11 11 11 11 11 10 10 10 10 10 9 9 9 8
12 12 12 12 12 12 12 12 12 12 12 13 12 12 12 12 12 12 12 12 12 12 12 12 11 11 11 11 11 11 11 11 10 10 10 10 10 10 9 9 9 9 8 8
Wind_Speed
9 7 7 9 9 10 13 12 12 10 8 3 3 3 3 4 5 6 7 7 7 7 7 8 8 7 7 7 7 7 6 5 4 3 3 2 1 1 1 1 1 1 1 2
10 9 9 10 10 11 11 11 12 10 7 3 2 2 4 5 5 6 6 7 7 7 8 8 8 8 8 7 7 7 6 6 5 4 3 2 1 1 1 1 1 1 1 2
10 8 9 12 11 11 10 9 9 9 5 3 2 3 4 5 6 6 5 6 6 6 7 8 8 8 8 7 7 7 6 6 5 5 4 3 2 2 1 1 1 1 1 1
8 8 11 5 2 4 6 5 5 4 2 2 2 2 3 3 4 4 5 5 5 6 7 7 8 8 7 7 7 7 6 5 5 4 4 3 3 2 1 1 1 1 1 1
7 10 8 5 3 4 6 5 2 3 3 2 1 3 3 2 2 3 4 4 4 5 6 7 7 8 8 7 7 7 6 5 5 5 4 3 3 2 1 1 1 1 1 1
8 9 9 4 2 2 5 6 1 2 2 3 4 4 2 1 2 3 3 3 4 5 6 7 7 7 8 7 7 6 5 5 5 5 4 4 3 2 2 1 1 1 1 1
10 10 6 1 1 4 7 2 2 0 1 3 3 2 2 2 2 3 3 4 4 5 5 6 7 7 7 6 6 5 5 5 5 5 5 4 3 3 2 2 1 0 1 1
9 10 6 2 2 2 2 3 2 1 1 1 1 2 2 3 4 4 5 5 5 5 5 5 6 7 7 6 6 5 6 6 5 5 4 4 4 3 2 2 2 2 1 1
4 2 2 2 2 2 1 1 1 2 1 0 1 1 2 3 4 4 4 5 5 6 5 5 5 6 6 6 6 6 6 6 5 5 4 4 4 3 3 2 1 1 1 1
3 2 0 1 2 2 2 2 2 1 0 0 1 2 2 3 3 4 4 5 5 6 6 5 5 5 5 6 6 7 6 6 5 5 4 4 3 2 2 1 1 1 1 2
5 3 2 1 1 2 2 2 2 0 1 1 1 1 2 2 3 3 3 4 4 5 5 6 6 6 6 6 7 6 6 5 5 5 4 4 3 1 1 1 0 2 2 2
4 3 3 3 4 4 3 2 1 1 1 1 1 2 2 2 2 3 3 4 4 5 5 5 5 6 6 6 6 6 5 5 4 4 4 3 3 3 3 0 2 1 2 3
5 5 5 6 5 4 4 3 2 2 1 1 1 2 2 2 2 3 3 4 4 5 5 5 6 5 6 6 6 5 4 4 4 4 4 3 3 3 3 4 5 5 4 3
5 5 6 5 5 4 3 3 2 1 1 1 1 2 2 2 3 3 3 4 5 5 5 5 5 5 5 6 6 5 5 5 4 4 3 3 3 3 2 2 2 2 4 6
6 7 7 5 5 4 3 2 2 2 2 1 2 3 2 2 2 3 3 3 4 5 5 5 5 5 5 5 5 5 4 4 4 3 3 3 3 3 3 2 2 2 1 3
7 7 6 6 5 4 3 3 3 3 3 2 2 3 3 3 3 3 3 4 5 5 5 5 5 4 4 5 5 4 4 4 3 3 3 3 3 3 2 2 2 2 2 2
8 8 7 6 5 5 5 4 3 3 3 3 3 3 3 4 3 3 3 3 3 4 4 5 5 5 5 5 5 4 4 5 6 4 3 3 3 3 3 3 3 2 2 1
8 8 7 7 6 6 5 4 3 3 3 3 3 3 4 4 4 4 4 4 4 4 4 4 4 5 5 5 4 4 4 4 5 4 3 3 3 3 3 3 2 2 1 1
6 7 6 6 6 5 5 4 4 3 3 3 4 4 4 4 4 4 5 5 4 4 4 4 5 5 5 4 4 4 4 4 4 4 3 3 4 4 3 3 2 2 2 1
4 5 5 4 4 4 4 4 3 3 2 3 3 4 3 4 4 4 5 5 3 2 3 4 4 4 4 4 3 4 4 5 5 4 4 4 4 3 3 3 3 2 2 3
3 4 4 4 3 3 3 3 3 3 3 3 4 4 3 3 4 5 5 4 3 3 3 5 4 3 3 3 5 4 4 4 4 4 4 4 4 3 3 3 3 3 3 3
1 2 3 3 3 2 2 2 2 2 2 2 3 3 3 4 4 4 4 3 4 5 4 4 3 3 2 3 4 3 3 4 4 4 4 4 4 3 3 3 3 3 3 3
1 1 2 2 2 2 2 2 2 2 2 2 2 3 3 3 3 3 4 4 4 5 4 2 4 6 3 4 4 4 4 4 4 4 4 4 3 3 3 4 3 3 3 3
0 0 1 1 2 2 2 2 2 2 2 2 2 2 3 3 3 3 2 4 5 5 3 4 8 6 6 5 4 4 4 4 4 3 3 3 3 3 3 3 3 2 2 3
0 0 1 1 2 2 2 2 2 2 3 2 2 2 2 2 2 2 3 4 5 4 3 5 8 7 5 4 3 3 3 3 3 3 3 3 3 3 2 2 2 2 2 2
0 0 1 0 0 1 1 2 2 2 2 2 2 2 2 2 3 3 3 4 5 4 3 3 4 4 4 3 3 2 2 2 3 3 2 2 2 3 2 2 3 2 2 2
0 1 1 1 1 1 1 1 1 1 2 2 2 2 2 3 3 3 3 3 3 3 3 3 3 3 3 3 2 2 2 2 2 2 2 2 2 2 2 2 2 2 2 2
Wind_Direction
259 255 245 244 241 237 241 252 260 263 264 265 263 231 196 173 166 162 161 165 169 172 169 167 166 166 170 167 165 164 161 160 151 148 133 122 126 124 116 93 48 42 17 356
244 237 238 242 242 240 245 252 255 260 260 281 275 210 186 184 178 181 176 172 174 175 170 168 169 168 166 165 164 163 161 157 151 145 136 140 150 154 145 124 41 21 11 1
246 236 240 241 239 237 238 243 252 256 261 266 246 211 199 196 195 193 185 175 172 172 174 173 172 170 168 164 161 162 161 154 149 151 152 156 163 159 169 156 100 43 16 4
251 232 238 235 236 232 225 241 252 258 267 267 265 242 207 194 192 197 185 175 173 174 173 172 169 165 166 159 158 161 158 154 154 158 161 158 158 163 173 162 113 66 43 18
246 240 239 216 205 225 229 231 245 246 247 243 226 197 177 167 188 185 172 167 170 173 167 161 162 161 161 162 162 163 163 162 163 164 163 159 161 165 164 155 129 110 92 45
241 245 246 208 148 218 233 224 171 236 229 223 216 226 151 99 161 156 149 152 157 157 154 154 157 159 163 166 165 167 166 163 161 160 162 159 152 154 148 161 159 187 114 81
243 246 246 58 161 213 230 204 83 14 256 234 246 315 43 96 114 134 134 134 136 139 145 153 157 163 169 167 168 164 155 154 157 157 159 151 147 151 156 163 136 126 128 143
237 240 229 51 186 226 11 47 52 24 348 339 57 61 101 116 116 128 132 132 133 134 138 145 156 163 165 163 158 153 151 153 154 158 162 148 153 157 164 177 177 184 202 246
253 261 51 36 18 21 358 322 344 341 347 48 122 114 113 128 125 127 132 132 135 135 136 142 156 165 163 158 157 155 154 155 157 158 158 157 161 163 177 187 219 238 262 295
249 214 346 25 5 352 336 313 310 315 294 168 139 133 131 138 142 140 140 139 140 140 143 146 157 163 161 160 160 155 155 158 161 165 167 159 169 175 187 187 220 256 288 301
243 251 255 245 4 349 336 322 310 317 198 189 158 161 153 150 148 150 153 148 147 149 150 147 150 156 160 157 157 155 156 161 168 169 163 159 158 151 189 144 349 280 287 294
251 237 257 276 311 317 317 316 294 254 237 204 178 170 165 160 153 155 158 154 155 156 153 148 148 153 158 158 158 160 163 170 175 174 168 176 170 160 123 136 140 197 305 308
276 289 288 287 296 308 305 299 268 237 226 212 201 177 162 156 157 149 153 160 165 164 158 154 153 156 159 160 164 171 177 179 180 178 174 182 185 198 190 181 188 200 216 242
270 273 277 281 286 297 299 290 265 244 242 226 188 168 154 156 160 163 165 169 165 161 160 158 157 159 161 162 168 178 186 177 190 185 186 191 195 211 225 234 221 212 194 191
262 262 268 278 278 279 277 267 241 233 226 218 191 179 174 173 172 173 164 163 161 165 167 164 162 160 161 167 174 183 185 185 187 185 193 200 206 219 230 238 259 270 265 174
267 262 261 259 259 259 259 256 241 231 225 214 202 190 182 175 174 171 163 159 169 170 163 160 162 164 170 176 178 184 180 168 192 195 200 202 214 227 232 242 252 265 274 290
258 257 257 257 254 255 261 261 247 233 224 216 204 189 180 175 170 167 169 167 166 165 167 167 164 165 171 182 188 186 182 176 183 203 205 208 221 228 237 250 258 267 276 34
259 261 259 255 249 250 255 252 238 225 217 213 203 194 187 181 181 174 170 164 158 164 169 165 163 170 173 185 193 196 190 188 194 204 209 215 229 234 240 250 262 276 292 174
253 253 252 251 248 245 244 240 232 214 202 193 192 190 190 186 177 171 165 168 168 169 165 159 158 184 183 183 193 197 199 199 204 208 215 205 225 235 238 243 252 263 278 290
240 238 238 235 233 236 234 225 209 196 198 196 191 185 183 177 176 176 173 184 182 156 151 154 178 187 187 184 207 208 204 210 213 213 215 225 233 240 250 257 258 260 272 277
230 220 215 214 213 213 205 196 192 191 198 204 199 193 181 174 184 188 189 190 157 149 160 169 188 185 185 176 219 224 214 216 221 224 223 229 238 242 250 260 265 269 273 280
210 197 193 191 185 182 179 176 175 176 186 196 194 194 181 180 190 194 193 188 157 144 174 193 185 137 156 203 219 221 219 225 228 227 229 233 237 239 245 254 261 266 272 279
176 175 186 192 186 177 167 170 175 174 183 197 201 203 195 193 197 196 191 173 167 165 193 187 125 130 177 223 225 222 224 231 236 235 234 237 240 244 249 254 259 266 273 272
162 160 185 183 167 161 171 178 181 180 183 189 197 200 195 192 196 193 168 139 152 169 194 133 140 166 212 223 233 231 228 232 239 243 240 238 241 245 252 258 259 258 257 262
23 92 136 170 185 188 182 185 191 190 189 187 194 188 198 201 200 174 169 166 157 177 179 155 164 190 216 228 231 235 236 236 238 243 242 249 249 247 250 256 264 268 266 260
17 357 19 258 196 191 189 202 204 194 195 193 185 174 184 187 186 180 184 185 186 186 183 171 178 200 220 224 223 227 229 222 228 232 237 243 247 251 256 262 259 263 262 259
122 142 155 165 136 145 171 172 171 186 188 181 171 174 184 187 187 189 190 188 190 193 185 182 189 203 217 225 227 232 231 234 238 247 251 251 254 260 265 267 270 263 252 245
Height
1463 1461 1463 1465 1466 1466 1467 1465 1468 1465 1463 1463 1464 1467 1470 1473 1476 1478 1481 1483 1485 1487 1488 1490 1492 1493 1495 1496 1498 1500 1501 1502 1502 1503 1504 1504 1504 1505 1505 1504 1504 1503 1502 1501
1467 1462 1462 1465 1463 1463 1463 1463 1462 1462 1463 1462 1465 1468 1471 1473 1475 1477 1480 1482 1483 1485 1487 1488 1490 1492 1493 1495 1496 1498 1499 1500 1501 1501 1502 1503 1503 1504 1503 1503 1502 1502 1501 1500
1467 1462 1465 1469 1460 1460 1460 1460 1461 1463 1463 1463 1465 1467 1470 1472 1474 1476 1478 1480 1482 1484 1485 1487 1489 1490 1492 1494 1495 1496 1497 1498 1499 1500 1501 1502 1502 1502 1502 1502 1501 1501 1500 1499
1465 1469 1480 1460 1453 1455 1458 1459 1459 1460 1461 1463 1465 1467 1469 1471 1473 1475 1477 1479 1480 1482 1484 1485 1487 1489 1491 1493 1494 1495 1496 1497 1498 1499 1500 1501 1501 1501 1501 1501 1500 1499 1499 1498
1467 1469 1464 1459 1457 1458 1460 1461 1461 1462 1463 1465 1466 1466 1468 1470 1472 1474 1476 1477 1479 1481 1482 1484 1486 1487 1489 1491 1492 1493 1494 1495 1496 1497 1498 1499 1499 1499 1499 1499 1499 1498 1497 1497
1467 1471 1471 1459 1456 1459 1461 1464 1463 1463 1464 1465 1465 1463 1466 1470 1472 1473 1475 1477 1478 1480 1481 1483 1484 1486 1487 1489 1490 1491 1493 1494 1495 1495 1496 1497 1498 1498 1498 1498 1498 1497 1496 1495
1466 1466 1458 1456 1458 1460 1467 1465 1464 1464 1465 1465 1465 1466 1468 1470 1471 1473 1474 1476 1477 1478 1480 1481 1483 1484 1486 1488 1489 1490 1491 1492 1493 1494 1495 1495 1496 1496 1496 1497 1496 1496 1495 1494
1463 1467 1464 1459 1458 1460 1463 1464 1465 1465 1466 1466 1467 1468 1468 1470 1471 1472 1474 1475 1476 1477 1479 1480 1482 1483 1484 1486 1487 1489 1490 1491 1492 1493 1494 1494 1494 1495 1495 1495 1495 1495 1494 1494
1458 1461 1461 1461 1462 1464 1465 1465 1465 1466 1466 1466 1467 1468 1469 1470 1471 1472 1473 1474 1475 1476 1478 1479 1480 1482 1483 1484 1485 1487 1488 1489 1490 1492 1492 1493 1493 1494 1494 1494 1495 1495 1494 1493
1461 1459 1461 1463 1464 1464 1465 1465 1465 1465 1466 1466 1466 1467 1468 1469 1470 1472 1473 1474 1475 1476 1477 1479 1480 1481 1482 1483 1484 1485 1486 1488 1489 1490 1491 1492 1492 1493 1494 1494 1493 1493 1492 1492
1462 1462 1463 1463 1464 1464 1464 1464 1464 1464 1465 1465 1465 1466 1467 1468 1470 1471 1472 1473 1474 1475 1477 1478 1479 1480 1481 1482 1483 1484 1485 1487 1488 1489 1490 1490 1491 1491 1492 1491 1491 1491 1491 1490
1459 1462 1462 1463 1464 1464 1463 1463 1463 1464 1463 1464 1465 1465 1466 1467 1468 1470 1471 1472 1473 1475 1476 1477 1478 1479 1480 1481 1482 1484 1485 1486 1488 1489 1489 1490 1490 1490 1490 1490 1489 1489 1488 1488
1462 1463 1463 1463 1463 1463 1462 1462 1463 1463 1463 1463 1464 1464 1465 1466 1467 1468 1469 1471 1472 1473 1474 1475 1476 1478 1479 1480 1481 1483 1484 1485 1486 1487 1488 1488 1489 1489 1489 1489 1488 1487 1486 1486
1462 1463 1462 1461 1461 1461 1461 1461 1461 1462 1462 1463 1463 1463 1464 1465 1466 1467 1468 1469 1470 1471 1473 1474 1475 1477 1478 1479 1480 1481 1483 1484 1485 1485 1486 1487 1487 1487 1487 1487 1487 1486 1485 1483
1460 1460 1460 1460 1459 1459 1459 1459 1460 1460 1461 1461 1462 1463 1463 1464 1465 1466 1467 1468 1469 1470 1471 1473 1474 1475 1476 1477 1478 1480 1481 1482 1483 1484 1484 1485 1485 1486 1486 1485 1485 1484 1483 1482
1458 1457 1457 1457 1457 1458 1458 1458 1458 1458 1459 1460 1461 1461 1462 1463 1464 1465 1465 1466 1467 1469 1470 1471 1471 1473 1474 1475 1476 1478 1478 1479 1480 1482 1483 1483 1483 1484 1484 1483 1483 1482 1481 1480
1455 1454 1454 1454 1455 1455 1456 1456 1456 1457 1458 1458 1459 1460 1461 1461 1462 1463 1464 1465 1466 1467 1468 1469 1470 1471 1472 1473 1474 1475 1476 1477 1478 1479 1480 1481 1481 1481 1481 1481 1480 1480 1479 1478
1451 1451 1452 1452 1453 1453 1453 1454 1454 1455 1456 1456 1457 1458 1459 1460 1461 1462 1463 1464 1465 1466 1467 1468 1468 1469 1470 1471 1472 1473 1474 1475 1476 1477 1478 1479 1479 1479 1479 1479 1478 1478 1477 1476
1448 1448 1449 1449 1450 1451 1451 1452 1452 1453 1454 1454 1455 1456 1457 1458 1459 1460 1461 1462 1463 1464 1465 1466 1466 1468 1469 1469 1470 1470 1472 1473 1475 1476 1476 1476 1477 1477 1477 1477 1476 1476 1475 1474
1444 1445 1446 1446 1447 1448 1449 1449 1450 1451 1452 1453 1454 1454 1455 1456 1457 1458 1460 1461 1462 1463 1463 1464 1465 1466 1467 1468 1468 1469 1470 1472 1473 1473 1474 1475 1475 1475 1475 1475 1474 1474 1473 1472
1441 1442 1443 1444 1445 1446 1446 1447 1448 1448 1449 1450 1451 1452 1453 1454 1456 1457 1458 1459 1460 1461 1462 1462 1464 1465 1465 1466 1466 1468 1469 1470 1470 1471 1472 1472 1472 1472 1472 1472 1472 1471 1470 1470
1440 1440 1441 1441 1443 1444 1445 1445 1446 1447 1447 1448 1450 1451 1452 1452 1454 1455 1456 1458 1458 1459 1460 1461 1462 1463 1463 1464 1465 1466 1467 1467 1468 1469 1469 1470 1469 1469 1469 1469 1469 1468 1468 1467
1439 1439 1440 1440 1441 1442 1443 1444 1444 1445 1446 1447 1448 1449 1450 1451 1452 1453 1455 1456 1457 1457 1459 1460 1460 1460 1461 1462 1463 1464 1464 1465 1465 1466 1466 1467 1467 1467 1466 1466 1466 1465 1465 1464
1438 1438 1438 1439 1440 1441 1442 1442 1443 1443 1444 1445 1446 1447 1448 1449 1450 1452 1453 1453 1454 1456 1457 1457 1458 1458 1459 1460 1461 1462 1462 1463 1463 1464 1464 1464 1464 1464 1464 1463 1463 1462 1462 1461
1437 1437 1437 1438 1439 1440 1440 1441 1441 1442 1443 1444 1445 1446 1447 1448 1449 1450 1451 1452 1453 1454 1455 1455 1456 1456 1457 1458 1459 1460 1460 1461 1461 1461 1461 1461 1461 1461 1461 1460 1460 1459 1459 1458
1437 1437 1437 1437 1438 1439 1439 1440 1440 1441 1442 1442 1443 1444 1445 1446 1447 1448 1449 1451 1452 1452 1453 1454 1454 1455 1456 1457 1457 1457 1458 1458 1458 1459 1459 1459 1458 1458 1458 1457 1457 1456 1455 1454
1436 1436 1436 1437 1437 1438 1438 1439 1439 1440 1440 1441 1441 1443 1444 1445 1446 1447 1448 1449 1450 1451 1451 1452 1452 1453 1454 1455 1455 1455 1456 1456 1456 1456 1456 1456 1456 1455 1455 1454 1453 1453 1452 1451